Regional Weather Roundup
Issued by NWS State College, PA

Home | Current Version | Previous Version | Graphics & Text | Print | Product List | Glossary On
Versions: 1 2 3 4 5 6 7 8 9 10 11 12 13 14 15 16 17 18 19 20 21 22 23 24 25 26 27 28 29 30 31 32 33 34 35 36 37 38 39 40 41 42 43 44 45 46 47 48 49 50
000
ASUS41 KCTP 041903
RWRCTP

REGIONAL WEATHER ROUNDUP
NATIONAL WEATHER SERVICE STATE COLLEGE PA
200 PM EST SUN DEC 04 2016

Note: "fair" indicates few or no clouds below 12,000 feet with no
significant weather and/or obstructions to visibility.

* = STATION THAT DOES NOT REPORT PRECIPITATION /E.G. RAIN...SNOW...ETC/
    THUNDER OR FOG.

PAZ002>004-007>009-013>016-020>023-029>032-042000-
WESTERN PENNSYLVANIA

CITY           SKY/WX    TMP DP  RH WIND       PRES   REMARKS
ERIE           PTSUNNY   42  31  64 S7        30.15F
MEADVILLE      CLOUDY    38  28  67 VRB6      30.11F
FRANKLIN*        N/A     37  27  65 SE10      30.13F
NEW CASTLE     CLOUDY    40  29  64 E8        30.13F
BEAVER COUNTY  NOT AVBL
BUTLER*        CLOUDY    39  28  65 E10       30.15F
PITTSBURGH INT CLOUDY    41  28  60 E10       30.11F
PITTSBURGH     MOSUNNY   40  25  55 E7        30.10F
INDIANA*       PTSUNNY   39  28  65 E8        30.16F
LATROBE        CLOUDY    41  27  56 E12       30.14F
WASHINGTON CO* MOSUNNY   39  27  60 E8        30.12F
$$

PAZ004>006-010>012-017>019-024>028-033>037-041-042-045-046-049>053-042000-
CENTRAL PENNSYLVANIA

CITY           SKY/WX    TMP DP  RH WIND       PRES   REMARKS
BRADFORD       CLOUDY    35  26  69 SE5       30.11F
DUBOIS         CLOUDY    37  26  64 E6        30.12F
CLEARFIELD     CLOUDY    38  27  64 SE5       30.14F
JOHNSTOWN      CLOUDY    37  26  64 SE7       30.10F
ALTOONA        CLOUDY    40  30  67 VRB5      30.15F
STATE COLLEGE  CLOUDY    37  28  70 CALM      30.17F
WILLIAMSPORT   MOSUNNY   45  24  43 NW6       30.18F
SELINSGROVE    MOSUNNY   44  27  51 CALM      30.21F
FT INDIANTOWN  CLOUDY    44  24  45 N5        30.20F
CAPITAL CITY   CLOUDY    46  25  43 NW3       30.21F
HARRISBURG     CLOUDY    45  28  51 W6        30.20F
YORK           CLOUDY    43  29  57 CALM      30.21F
$$

PAZ038>040-043-044-047-048-054-055-060>062-067>071-042000-
EASTERN PENNSYLVANIA

CITY           SKY/WX    TMP DP  RH WIND       PRES   REMARKS
SCRANTON       CLOUDY    41  24  51 NW10      30.18F
MOUNT POCONO   CLOUDY    36  20  52 NW10      30.14F
ALLENTOWN      CLOUDY    47  24  40 NW8       30.19F
QUAKERTOWN*    PTCLDY    45  25  45 NW5       30.20S
READING        MOSUNNY   46  25  43 NW7       30.20S
LANCASTER      MOSUNNY   45  29  53 NW5       30.21S
COATESVILLE    CLOUDY    43  27  52 NW8       30.21S
POTTSTOWN      CLOUDY    45  25  45 N7        30.22S
BLUE BELL      CLOUDY    45  27  49 CALM      30.19F
DOYLESTOWN     CLOUDY    48  25  40 N9        30.19F
WILLOW GROVE   NOT AVBL
NORTH PHILA    MOSUNNY   48  26  42 NW8       30.21F
PHILADELPHIA   PTSUNNY   48  25  40 N10       30.21F
$$



USA.gov is the U.S. government's official web portal to all federal, state and local government web resources and services.